Weather in Kryvyi Rih

Ukraine / Dnipropetrovsk Region     47˚54′37″N   33˚23′30″E
temp.,
°C
wind,
m/s
gust,
m/s
humid.,
%
clouds,
%
prec.,
mm/h
press.,
hPa
HPBL,
m
1 december, tue
tue123:00+4˚ne3682100 0.0 1023247
02:00+4˚ne4684100 0.0 1023300
05:00+4˚ene4786100 0.0 1023415
08:00+4˚e5877100 0.0 1023480
11:00+4˚e5874100 0.0 1023600
14:00+4˚e5871100 0.0 1023635
17:00+3˚e5974100 0.0 1024679
20:00+3˚ene5977100 0.0 1024584
2 december, wed
wed223:00+2˚e5885100 0.0 1024599
02:00+2˚e5890100 0.1 1025513
05:00+2˚e4890100 0.1 1024455
08:00+2˚e5884100 0.1 1025484
11:00+3˚e578099 0.1 1025498
14:00+3˚e5881100 0.1 1024520
17:00+3˚e5889100 0.4 1024482
20:00+4˚ese4884100 0.6 1024453
3 december, thu
thu323:00+4˚ese3784100 0.4 1024432
02:00+4˚ese3688100 0.6 1024315
05:00+4˚se2495100 0.5 1024158
08:00+4˚se2293100 0.6 1025130
11:00+6˚sse237518 0.0 1025452
14:00+7˚sse236320 0.0 1024767
17:00+5˚ese2483100 0.1 1024141
20:00+4˚ese3590100 0.1 1025130
4 december, fri
fri423:00+4˚se369175 0.0 1025213
02:00+3˚ese369076 0.0 1024248
05:00+2˚e36941 0.0 1024174
08:00+2˚e48958 0.0 1024252
11:00+5˚ese588272 0.0 1024562
14:00+6˚ese587986 0.0 1022624
17:00+6˚ese61077100 0.0 1022668
20:00+4˚ese6128673 0.0 1023476
5 december, sat
sat523:00+2˚ese5118945 0.0 1023419
02:00+2˚ese5119267 0.0 1023391
05:00+2˚ese6119197 0.0 1023419
08:00+2˚ese6108998 0.0 1024435
11:00+3˚ese6980100 0.0 1025456
14:00+5˚ese6971100 0.0 1024490
17:00+3˚ese5117533 0.0 1025433
20:00+2˚ese6127817 0.0 1026455